Regional Weather Roundup
Issued by NWS Cleveland, OH

Home | Current Version | Previous Version | Text Only | Print | Product List | Glossary Off
Versions: 1 2 3 4 5 6 7 8 9 10 11 12 13 14 15 16 17 18 19 20 21 22 23 24 25 26 27 28 29 30 31 32 33 34 35 36 37 38 39 40 41 42 43 44 45 46 47 48 49 50

000
ASUS41 KCLE 221810
RWRCLE
OHIO REGIONAL WEATHER ROUNDUP
NATIONAL WEATHER SERVICE WILMINGTON, OH
200 PM EDT SUN APR 22 2018

NOTE: "FAIR" INDICATES FEW OR NO CLOUDS BELOW 12,000 FEET WITH NO
SIGNIFICANT WEATHER AND/OR OBSTRUCTIONS TO VISIBILITY.

OHZ001>008-015>018-024>027-034-035-043-044-221900-
   NORTHWEST OHIO

CITY           SKY/WX    TMP DP  RH WIND       PRES   REMARKS
DEFIANCE       FAIR      59  27  29 E12       30.34F
FINDLAY        FAIR      62  27  26 NE15G24   30.32F
TOLEDO EXPRESS FAIR      59  23  25 E18G29    30.37F
TOLEDO EXEC    FAIR      55  24  30 E16G26    30.38F
LIMA           FAIR      59  29  31 NE15      30.31F
$$

OHZ009>014-019>023-028>033-038-089-221900-
   NORTHEAST OHIO

CITY           SKY/WX    TMP DP  RH WIND       PRES   REMARKS
CLE-HOPKINS    PTSUNNY   55  31  39 NE15      30.38F
CLE-LAKEFRONT  FAIR      46  36  68 NE18      30.35F
CUY CO. ARPT   MOSUNNY   59  30  33 NE12G21   30.36F
LORAIN-ELYRIA  FAIR      55  24  30 NE20      30.35F
ASHTABULA      FAIR      59  27  29 NE8G18    30.37F
AKRON-CANTON   PTSUNNY   63  23  21 NE9       30.32F
WOOSTER        FAIR      62  27  26 E12G20    30.32F
MANSFIELD      FAIR      62  26  25 NE14G21   30.31F
YOUNGSTOWN     PTSUNNY   62  21  20 VRB5      30.33F
$$

OHZ042-051>053-060>062-070>072-077>081-221900-
  SOUTHWEST OHIO

CITY           SKY/WX    TMP DP  RH WIND       PRES   REMARKS
CINC-COVINGTON CLOUDY    64  28  25 NE16      30.23F
CINC-LUNKEN    FAIR      63  36  36 NE14      30.25F
HAMILTON       FAIR      61  35  37 NE9       30.27F
DAYTON         CLOUDY    63  27  25 NE13      30.29F
WRIGHT-PAT AFB NOT AVBL
DAYTON GENERAL FAIR      63  27  25 NE14      30.26F
WILMINGTON     FAIR      61  32  33 NE10      30.27F
$$

OHZ036-037-039>041-045>050-054>059-063>069-073>076-082>088-221900-
  CENTRAL AND SOUTHEAST OHIO

CITY           SKY/WX    TMP DP  RH WIND       PRES   REMARKS
COLUMBUS       PTSUNNY   65  24  21 E7        30.29F
OSU AIRPORT    FAIR      63  26  24 VRB5      30.29S
BOLTON FIELD   SUNNY     63  28  27 CALM      30.29F
RICKENBACK AFB FAIR      62  29  27 E8        30.28F
NEWARK         FAIR      65  28  24 E9        30.28F
MARION         FAIR      60  21  22 E12       30.31F
LANCASTER      FAIR      63  32  31 E8        30.29F
ZANESVILLE     FAIR      66  25  21 NE9       30.28F
NEW PHILLY     FAIR      64  25  22 E5        30.30F
$$




USA.gov is the U.S. government's official web portal to all federal, state and local government web resources and services.